Torna al catalogo

STARLINK-4697

AttivoComunicazioniVLEO
NORAD 53726·PAYLOAD·🇺🇸 United States

Lanciato Sep 5, 2022 da Cape Canaveral Space Force Station

Loading…

Prossimi Passaggi (prossime 24 ore)

TLE

AggiornatoSource: CelesTrak SupGP

Epoca: Sep 14, 2026, 21:49 UTC

1 53726C 22107AC  26257.90951389  .00003754  00000+0  11086-3 0  2575
2 53726  53.1571 111.5111 0001263  90.8034  73.3804 15.34404431    19

Traccia STARLINK-4697 in tempo reale con AllMySat

Download on the App Store